ASIASAT 7

Last updated on Jan. 19, 2020, 4:37 a.m. UTC

1 37933U 11069A   20018.52688213 -.00000339  00000-0  00000-0 0  9994
2 37933   0.0400 248.5441 0001398  40.8311 123.1733  1.00273735 21378
UTC
Height (km)
Latitude
Longitude
Inclination
Orbital Period
UTC large
Height (km)
Speed (km/s)
/
Latitude / Longitude
Inclination (degrees)
Orbital Period (minutes)
Azimuth
Elevation
Range (km)
Doppler Factor
iOS Compass Heading
iOS Angle

Next 30 passes for location: Hong Kong

Rise time Rise Azimuth (degrees) Set time Set Azimuth (degrees) Duration Max altitude (degrees)

No matching passes for this satellites